Погода в Сеяхе

Погода в Сеяхе : погода сейчас, прогноз погоды и архив. Всё, что Вы хотите узнать о погоде в Сеяхе!

Хотите узнать прогноз погоды в Сеяхе? Тогда Вам сюда: Погода в Сеяхе

Поиск расширенной информации на нашем сайте:

Другие новости

Новости СМИ2

Главная страница сайта

Новости сайта

03.07.2017

Напоминаем, что на нашем специализированном сайте Метеоцентр.Азия вы можете получить высокодетализированные автоматические прогнозы погоды по пунктам России, СНГ и мира в авиационном формате (включающие направление и скорость ветра, видимость, явления погоды, количество и форму облачности, нижнюю и верхнюю границу облачности).


Погода в Сеяхе - сегодня

Время (UTC), дата Ветер
(°,м/с) 
Видим.   Явления Облачность Т
(°С)
Тd
(°С)
f(%) Тe
(°С)
Pmin
(гПа)
dP
(гПа)
Po
(мм)
O2
(г/м3)
Тmin Tmax R s Состояние
почвы
21 14.10.18 330 (СЗ) 20000 м    9/9 240 м 
[St]
+0.3 -0.1 97 -3  1007.1  1.5  754  303           
00 15.10.18 330 (СЗ) 1000 м    10/10 150 м 
[St]
+0.1 -0.2 98 -3  1008.5  1.4  755  304           
03 15.10.18 320 (СЗ) 20000 м    10/10 120 м 
[St]
-0.4 -0.7 98 -3  1010.3  1.8  756  305  -0.4         
09 15.10.18 290 (З) 0500 м  туман  ?/?  
-2.2 -2.4 99 -4  1012.4  758  308           
12 15.10.18 250 (З) 0500 м  туман  ?/?  
-2.5 -2.8 98 -5  1012.6  0.2  758  308           
21 15.10.18 200 (Ю) 20000 м    10/10 360 м 
[St]
-1.5 -1.8 98 -3  1007.9  -2.9  754  306           
00 16.10.18 190 (Ю) 20000 м    10/10 330 м 
[St]
-1.6 -2.8 92 -5  1003.9  -4  751  305           
03 16.10.18 190 (Ю) 10-15{17}  20000 м    9/9 480 м 
[Cu Sc]
-0.1 -1.8 88 -5  998.6  -5.3  747  301  -2.9         
15 16.10.18 190 (Ю) 4000 м  слаб. снег  10/10 270 м 
[Ns]
+0.3 -0 98 -3  980.3  -2.3  734  295    +0.9     
21 16.10.18 120 (ЮВ) 20000 м  {снег}  10/10 270 м 
[Ns]
-0 -0.2 99 +1  979.8  0.8  733  295           
03 17.10.18 050 (СВ) 8{12}  20000 м    10/10 270 м 
[St]
+0.7 +0.2 96 -3  983.9  2.6  736  296  -0.3    0.5  мокрый или
старый снег
10-40% 
15 17.10.18 020 (С) 13-17{21}  20000 м  {ливн. осадки}  10/10 720 м 
[Sc]
-0.2 -3.9 76 -6  999  748  302    +1.1     
21 17.10.18 320 (СЗ) 7{15}  20000 м    9/9 800 м 
[Sc]
-2.4 -4.3 87 -7  1004.5  2.9  752  306           
03 18.10.18 320 (СЗ) 20000 м    9/9 630 м 
[Sc]
-2.3 -3 95 -5  1007.4  1.3  754  307  -2.9      мокрый или
старый снег
50-90% 
06 18.10.18 320 (СЗ) 20000 м    8/5 270 м средняя 
[Cu med, cong|Ac trans]
-1.2 -2.9 88 -4  1008.6  1.1  755  306           
09 18.10.18 330 (СЗ) 20000 м    8/8 700 м 
[Sc]
-1.5 -2.8 91 -3  1009.2  0.6  755  306           
12 18.10.18 310 (СЗ) 20000 м    9/9 720 м 
[Cu Sc]
-2.6 -3.3 95 -5  1009.7  0.5  756  308           
15 18.10.18 280 (З) 20000 м    ясно 
-4.3 -4.6 98 -6  1009.8  0.1  756  310    -1.1       
18 18.10.18 270 (З) 1000 м  дымка  ясно 
-5.5 -6 96 -5  1009.5  -0.3  755  311           
21 18.10.18 250 (З) 0500 м  переохл. туман  ясно 
-5.6 -6.3 95 -5  1009.6  0.1  755  311           
00 19.10.18 230 (ЮЗ) 0500 м  переохл. туман  ясно 
-5.4 -5.9 96 -5  1009.4  -0.3  755  311           
03 19.10.18 180 (Ю) 20000 м  {туман}  4/3 600 м верхняя 
[Sc|Ci fib]
-5.8 -6.4 96 -8  1009.4  0.1  755  312  -7.1      сухой снег
50-90% 
06 19.10.18 230 (ЮЗ) 20000 м    5/3 270 м средняя, верхняя 
[Sc|Ac trans|Ci fib]
-3.8 -5.2 90 -6  1009.3  -0.1  755  309           
09 19.10.18 200 (Ю) 20000 м    8/3 600 м средняя, верхняя 
[Sc|Ac trans|Ci fib]
-3 -5.4 83 -5  1009.2  -0.1  755  308           
12 19.10.18 190 (Ю) 20000 м    8/6 800 м средняя 
[Sc|Ac trans]
-2.8 -6.6 75 -4  1009.7  0.5  756  308           
Время (UTC), дата Ветер
(°,м/с) 
Видим.   Явления Облачность Т
(°С)
Тd
(°С)
f(%) Тe
(°С)
Pmin
(гПа)
dP
(гПа)
Po
(мм)
O2
(г/м3)
Тmin Tmax R s Состояние
почвы

Для получения пояснительной информации подведите курсор к названию столбца.

ПОГОДА в Сеяхе - архив

Всё, что Вы хотите узнать о погоде в Сеяхе - удобно и подробно!

Выберите нужную дату (начиная с 1 января 2015* года) и нажмите кнопку "Найти".
Будут отображены архивные сводки погоды по пункту Сеяха, начиная с указанной даты.


Отображать данные в формате CSV (для использования в таблицах Excel)


Внимание! Наш архив погоды предназначен исключительно для личного некоммерческого использования в познавательных целях. Если Вам необходимы официальные справки о состоянии погоды (для производственных, юридических, коммерческих и т.п. целей), обращайтесь в органы Росгидромета.

*Примечание: данная дата относится к архиву по метеостанциям СССР (Россия, СНГ, Балтия).
Архив по метеостанциям Зарубежной Европы и Азии (кроме Китая) хранится 10 дней, по другим регионам земного шара (Китай, Африка, Америка, Австралия, Океания) - 1 день.

Сеяха - район местоположения метеостанции


Название, широта, долгота, высота метеостанции:
Сеяха 70.2°ш. 72.5°д. 16 м над ур. моря [Российская Федерация]

Дополнительная информация

В oтличие oт бoльшинства пoгoдных сайтoв мы публикуем пoдрoбную метеoинфoрмацию в детальнoм прoфессиoнальнoм фoрмате.

Характеристики температуры и влажнoсти вoздуха измеряются на высoте 2 м в тени вдали oт зданий и деревьев.
Скoрoсть ветра измеряется на высoте 10 м (на урoвне рoста челoвека скoрoсть ветра ниже в 1.5-2 раза). Если метеoстанция нахoдится в гoрoде или в лесу, тo скoрoсть ветра занижена на 2-4 м/с пo сравнению с oткрытым местoм. Скoрoсть ветра над акватoриями крупных рек и oзёр, а также на вершинах хoлмoв на 2-5 м/с выше, чем в oбычных услoвиях.
Атмoсфернoе давление в разных тoчках местнoсти мoжет значительнo oтличаться oт давления на метеoстанции, в зависимoсти oт услoвий рельефа (при пoдъёме на 10 м давление пoнижается примернo на 1 мм рт.ст.).